Flag for India Weather past 2 weeks in Chittorgarh, Rajasthan, India

Now
90 °F

Scattered clouds.


Feels Like: 98 °F
Forecast: 72 / 89 °F
Wind: 7 mph from Northwest

Location: Jaipur / Sanganer

Current Time: Sep 15, 2014 at 3:22:01 PM

Latest Report: Sep 15, 2014 at 2:00 PM


Visibility: 2 mi

Pressure: 29.74 "Hg

Humidity: 59%

Dew point: 73 °F

Location of ChittorgarhLocation

Historic Weather in Chittorgarh — Graph

°F

Chittorgarh temperature yesterday

Maximum temperature yesterday: 91 °F (at 4:00 PM)
Minimum temperature yesterday: 79 °F (at 11:00 PM)
Average temperature yesterday: 85 °F

Past Weeks' High & Low Weather Summary

 TemperatureHumidityPressure
High93 °F (Sep 10, 1:00 PM)100% (Sep 3, 8:00 AM)29.83 "Hg (Sep 3, 8:00 AM)
Low73 °F (Sep 12, 4:00 AM)59% (Sep 10, 1:00 PM)29.53 "Hg (Aug 31, 3:00 PM)
Average82 °F82%29.67 "Hg
* Reported Aug 31 1:00 PM — Sep 15 1:00 PM, Chittorgarh, Weather by CustomWeather, © 2014

Note: Actual official high and low records may vary slightly from our data, if they occured in-between our weather recording intervals... More about our weather records

Advertising

Chittorgarh weather history for previous 24 hours

 ConditionsComfort  
Time TempWeatherWind HumidityBarometerVisibility
1:00 PM
Sep 15
90 °FScattered clouds.7 mph63%29.77 "Hg2 mi
12:00 PM90 °FScattered clouds.6 mph59%29.80 "Hg2 mi
11:00 AM88 °FScattered clouds.8 mph66%29.83 "Hg2 mi
10:00 AM84 °FScattered clouds.7 mph74%29.83 "Hg2 mi
9:00 AM82 °FScattered clouds.8 mph74%29.83 "Hg2 mi
8:00 AM81 °FScattered clouds.7 mph79%29.80 "Hg2 mi
6:00 AM81 °FFog.3 mph79%29.77 "Hg1 mi
5:00 AM81 °FFog.3 mph84%29.74 "Hg1 mi
4:00 AM81 °FFog.No wind79%29.74 "Hg1 mi
3:00 AM81 °FFog.3 mph79%29.74 "Hg1 mi
2:00 AM81 °FFog.No wind79%29.74 "Hg1 mi
12:00 AM79 °FFog.1 mph79%29.77 "Hg1 mi
11:00 PM
Sep 14
79 °FFog.1 mph79%29.80 "Hg1 mi
10:00 PM81 °FFog.10 mph74%29.80 "Hg1 mi
9:00 PM82 °FFog.1 mph74%29.80 "Hg1 mi
7:00 PM82 °FBroken clouds.1 mph66%29.74 "Hg2 mi
6:00 PM82 °FBroken clouds.6 mph70%29.74 "Hg2 mi
5:00 PM90 °FBroken clouds.9 mph59%29.71 "Hg2 mi
4:00 PM91 °FBroken clouds.7 mph59%29.71 "Hg2 mi
3:00 PM90 °FBroken clouds.9 mph59%29.74 "Hg2 mi
Weather by CustomWeather, © 2014

See weather overviewHow to use our weather pages